Location: Daouli
(14.8671°N, 3.2030°W)
Time: 02:09:59
(UTC+00:00)

CCE 1 Rocket - Pass Details

Date: 29 October 2020
Orbit: 543 x 3984 km, 28.9° (Epoch: 02 December)

Event Time Altitude Azimuth Distance (km) Brightness Sun altitude
Rises 19:08:23 0° 293° (WNW) 2,880 7.9 -20.5°
Reaches altitude 10° 19:10:16 10° 292° (WNW) 2,122 7.1 -21.0°
Maximum altitude 19:15:00 76° 206° (SSW) 952 4.4 -22.1°
Enters shadow 19:19:11 28° 126° (SE) 2,102 5.8 -23.1°
